FW0672 Weather Reports


time (UTC)temp
C
wind
direction
speed
KPH
gust
KPH
rain 1hr
cm
rain 24hr
cm
rain mn
cm
humidity
%
barometer
mb
20260509211029 22 120 4.8 6.4 0.00 0.00 0.00 56 1012.3
20260509210105 22 0.0 0.0 0.00 0.00 0.00 57 1012.2
20260509205020 22 23 1.6 6.4 0.00 0.00 0.00 57 1012.2
20260509204032 22 21 4.8 9.7 0.00 0.00 0.00 57 1012.2
20260509203016 22 58 6.4 8.0 0.00 0.00 0.00 57 1012.2
20260509202017 22 116 8.0 11.3 0.00 0.00 0.00 56 1012.2
20260509201018 22 52 8.0 9.7 0.00 0.00 0.00 56 1012.4
20260509200020 23 206 3.2 6.4 0.00 0.00 0.00 54 1012.4
20260509195142 22 152 6.4 8.0 0.00 0.00 0.00 57 1012.6
20260509194023 23 184 6.4 11.3 0.00 0.00 0.00 55 1012.7
20260509193024 21 230 4.8 9.7 0.00 0.00 0.00 57 1012.7
20260509192025 22 106 8.0 16.1 0.00 0.00 0.00 56 1012.7
20260509191026 22 120 9.7 17.7 0.00 0.00 0.00 56 1012.7
20260509190028 22 109 6.4 16.1 0.00 0.00 0.00 56 1012.9
20260509185023 23 105 9.7 16.1 0.00 0.00 0.00 57 1013.0
20260509184018 22 55 9.7 14.5 0.00 0.00 0.00 58 1013.2
20260509183031 21 101 8.0 12.9 0.00 0.00 0.00 58 1013.4
20260509182112 22 12 11.3 14.5 0.00 0.00 0.00 58 1013.4
20260509181015 21 18 8.0 11.3 0.00 0.00 0.00 60 1013.7
20260509180016 21 61 9.7 14.5 0.00 0.00 0.00 58 1013.9
20260509175019 21 76 9.7 14.5 0.00 0.00 0.00 60 1013.9
20260509174020 21 47 11.3 14.5 0.00 0.00 0.00 59 1014.0
20260509173021 20 53 6.4 9.7 0.00 0.00 0.00 61 1014.3
20260509172022 20 354 8.0 11.3 0.00 0.00 0.00 61 1014.6
20260509171023 19 20 8.0 12.9 0.00 0.00 0.00 64 1014.7
20260509170024 19 46 8.0 11.3 0.00 0.00 0.00 63 1015.0
20260509165026 19 33 8.0 11.3 0.00 0.00 0.00 62 1014.9
20260509164021 19 26 8.0 11.3 0.00 0.00 0.00 63 1014.8
20260509163017 19 56 8.0 11.3 0.00 0.00 0.00 62 1014.8
20260509162030 19 72 6.4 11.3 0.00 0.00 0.00 60 1014.4
20260509161111 20 16 8.0 14.5 0.00 0.00 0.00 59 1014.3
20260509160015 20 17 9.7 12.9 0.00 0.00 0.00 60 1014.4
20260509155017 20 47 9.7 14.5 0.00 0.00 0.00 60 1014.6
20260509154018 20 311 6.4 9.7 0.00 0.00 0.00 58 1014.8
20260509153018 19 53 9.7 14.5 0.00 0.00 0.00 60 1014.7
20260509152019 20 61 9.7 14.5 0.00 0.00 0.00 60 1014.9
20260509151021 20 6 8.0 11.3 0.00 0.00 0.00 60 1014.9
20260509150022 18 22 8.0 11.3 0.00 0.00 0.00 62 1014.8
20260509145125 18 45 9.7 12.9 0.00 0.00 0.00 61 1014.9
20260509144126 18 37 9.7 14.5 0.00 0.00 0.00 62 1015.0
20260509143020 18 3 9.7 11.3 0.00 0.00 0.00 64 1015.0
20260509142015 18 22 6.4 11.3 0.00 0.00 0.00 64 1015.1
20260509141028 17 45 6.4 9.7 0.00 0.00 0.00 64 1015.2
20260509140029 17 30 6.4 8.0 0.00 0.00 0.00 63 1015.2
20260509135031 17 321 4.8 8.0 0.00 0.00 0.00 62 1015.1
20260509134112 17 332 4.8 6.4 0.00 0.00 0.00 64 1015.1
20260509131024 16 71 4.8 8.0 0.00 0.00 0.00 65 1014.9
20260509130025 16 23 1.6 8.0 0.00 0.00 0.00 65 1015.0
20260509125126 16 0.0 0.0 0.00 0.00 0.00 65 1015.0
20260509124027 16 0.0 0.0 0.00 0.00 0.00 63 1015.1
20260509123122 16 337 3.2 6.4 0.00 0.00 0.00 65 1015.1
20260509122018 16 0.0 0.0 0.00 0.00 0.00 64 1015.1
20260509121111 15 0.0 0.0 0.00 0.00 0.00 64 1015.0
20260509120014 15 0.0 0.0 0.00 0.00 0.00 65 1015.1
20260509115016 15 0.0 0.0 0.00 0.00 0.00 63 1015.0
20260509114017 15 0.0 0.0 0.00 0.00 0.00 62 1015.0
20260509113018 15 0.0 0.0 0.00 0.00 0.00 62 1015.0
20260509112019 15 0.0 0.0 0.00 0.00 0.00 62 1014.9
20260509111020 14 0.0 0.0 0.00 0.00 0.00 62 1014.7
20260509110022 14 262 4.8 6.4 0.00 0.00 0.00 63 1014.7
20260509105023 13 270 1.6 6.4 0.00 0.00 0.00 64 1014.5
20260509104024 13 0.0 0.0 0.00 0.00 0.00 64 1014.4
20260509103025 13 0.0 0.0 0.00 0.00 0.00 64 1014.4
20260509102020 13 141 3.2 6.4 0.00 0.00 0.00 64 1014.4
20260509101016 13 130 1.6 4.8 0.00 0.00 0.00 64 1014.2
20260509100029 13 177 4.8 6.4 0.00 0.00 0.00 64 1014.3
20260509095032 13 169 4.8 8.0 0.00 0.00 0.00 64 1014.2
20260509094115 13 198 3.2 6.4 0.00 0.00 0.00 65 1014.2
20260509093016 13 167 3.2 4.8 0.00 0.00 0.00 66 1014.2
20260509092016 13 138 4.8 6.4 0.00 0.00 0.00 66 1014.3
20260509091018 14 127 3.2 4.8 0.00 0.00 0.00 63 1014.3
20260509090120 14 155 1.6 4.8 0.00 0.00 0.00 63 1014.4
20260509085041 14 207 1.6 3.2 0.00 0.00 0.00 62 1014.4
20260509084030 15 165 3.2 4.8 0.00 0.00 0.00 61 1014.4
20260509083020 15 201 4.8 8.0 0.00 0.00 0.00 61 1014.4
20260509082022 15 200 6.4 9.7 0.00 0.00 0.00 60 1014.6
20260509081023 15 192 8.0 12.9 0.00 0.00 0.00 60 1014.6
20260509080025 15 205 8.0 9.7 0.00 0.00 0.00 60 1014.6
20260509075026 15 221 6.4 12.9 0.00 0.00 0.00 59 1014.6
20260509074027 15 211 6.4 8.0 0.00 0.00 0.00 59 1014.6
20260509073029 15 204 6.4 8.0 0.00 0.00 0.00 59 1014.7
20260509072031 15 174 4.8 8.0 0.00 0.00 0.00 59 1014.8
20260509071026 15 177 6.4 9.7 0.00 0.00 0.00 59 1014.8
20260509070015 15 222 4.8 9.7 0.00 0.00 0.00 59 1014.9
20260509065016 15 196 6.4 11.3 0.00 0.00 0.00 59 1014.9
20260509064018 15 206 6.4 11.3 0.00 0.00 0.00 59 1015.0
20260509063019 15 207 8.0 9.7 0.00 0.00 0.00 59 1015.0
20260509062120 15 174 6.4 9.7 0.00 0.00 0.00 59 1015.1
20260509060021 15 185 6.4 11.3 0.00 0.00 0.00 62 1015.3
20260509055023 15 184 4.8 8.0 0.00 0.00 0.00 63 1015.3
20260509054024 14 199 4.8 8.0 0.00 0.00 0.00 65 1015.3
20260509053024 14 186 3.2 6.4 0.00 0.00 0.00 64 1015.3
20260509052126 15 169 3.2 6.4 0.00 0.00 0.00 63 1015.4
20260509051026 15 214 4.8 8.0 0.00 0.00 0.00 63 1015.3
20260509050021 14 233 4.8 9.7 0.00 0.00 0.00 65 1015.2
20260509045017 13 214 4.8 9.7 0.00 0.00 0.00 65 1015.3
20260509044030 13 0.0 0.0 0.00 0.00 0.00 68 1015.3
20260509043031 12 0.0 0.0 0.00 0.00 0.00 69 1015.3
20260509042032 12 0.0 0.0 0.00 0.00 0.00 69 1015.3
20260509041014 12 0.0 0.0 0.00 0.00 0.00 69 1015.4
20260509040015 12 0.0 0.0 0.00 0.00 0.00 68 1015.4
20260509034019 12 0.0 0.0 0.00 0.00 0.00 67 1015.5
20260509033020 13 0.0 0.0 0.00 0.00 0.00 65 1015.4
20260509032121 13 0.0 0.0 0.00 0.00 0.00 64 1015.4
20260509030023 14 0.0 0.0 0.00 0.00 0.00 62 1015.6
20260509025018 14 0.0 0.0 0.00 0.00 0.00 61 1015.6
20260509024025 14 0.0 0.0 0.00 0.00 0.00 61 1015.6
20260509023026 14 0.0 0.0 0.00 0.00 0.00 61 1015.7
20260509022027 14 0.0 0.0 0.00 0.00 0.00 60 1015.6
20260509021028 15 0.0 0.0 0.00 0.00 0.00 60 1015.7
20260509020030 15 0.0 0.0 0.00 0.00 0.00 58 1015.7
20260509015031 16 0.0 0.0 0.00 0.00 0.00 56 1015.6
20260509014115 16 0.0 0.0 0.00 0.00 0.00 54 1015.5
20260509013016 16 0.0 0.0 0.00 0.00 0.00 53 1015.5
20260509011018 17 0.0 0.0 0.00 0.00 0.00 50 1015.5
20260509010020 17 0.0 0.0 0.00 0.00 0.00 49 1015.4
20260509005022 18 0.0 0.0 0.00 0.00 0.00 48 1015.5
20260509004017 18 0.0 0.0 0.00 0.00 0.00 48 1015.4
20260509002025 20 39 3.2 4.8 0.00 0.00 0.00 45 1015.3
20260509001026 20 12 6.4 8.0 0.00 0.00 0.00 44 1015.2
20260509000027 21 34 1.6 6.4 0.00 0.00 0.00 43 1015.1
20260508235108 21 42 4.8 6.4 0.00 0.00 0.00 42 1015.0
20260508234029 21 43 6.4 8.0 0.00 0.00 0.00 40 1014.9
20260508233031 22 30 6.4 8.0 0.00 0.00 0.00 40 1014.8
20260508232032 23 27 3.2 9.7 0.00 0.00 0.00 38 1014.8
20260508231015 23 66 3.2 8.0 0.00 0.00 0.00 38 1014.7
20260508230017 24 0 4.8 8.0 0.00 0.00 0.00 37 1014.8
20260508225118 25 239 1.6 4.8 0.00 0.00 0.00 35 1014.8
20260508224019 25 284 6.4 9.7 0.00 0.00 0.00 35 1014.8
20260508223021 25 298 4.8 9.7 0.00 0.00 0.00 35 1014.8
20260508221023 25 324 9.7 12.9 0.00 0.00 0.00 35 1014.8
20260508220024 23 244 8.0 14.5 0.00 0.00 0.00 37 1014.8
20260508215026 23 266 11.3 16.1 0.00 0.00 0.00 36 1014.8
20260508213028 21 267 8.0 9.7 0.00 0.00 0.00 38 1015.1
20260508212029 22 275 9.7 14.5 0.00 0.00 0.00 37 1015.1